• In Hungary
  • List of Countries
  • For 7 days
  • Water Temperature
  • Satellite Maps
  • Weather Map
  • News
  • Weather Widgets
  • user-avatar
    Login

    Hourly Weather Stankivtsi

    Today, 19 February, Monday

    Time Temperature Precipitation Wind Pressure Humidity
    00:00 -6°C° 0.2 mm 2 mps 726 mmHg 100%
    01:00 -6°C° 0.1 mm 1 mps 726 mmHg 100%
    02:00 -6°C° 0.1 mm 0 mps 726 mmHg 100%
    03:00 -6°C° 0.1 mm 0 mps 726 mmHg 100%
    04:00 -7°C° 0 mm 0 mps 725 mmHg 100%
    05:00 -7°C° 0 mm 1 mps 725 mmHg 100%
    06:00 -8°C° 0 mm 1 mps 725 mmHg 100%
    07:00 -8°C° 0 mm 1 mps 725 mmHg 100%
    08:00 -8°C° 0 mm 1 mps 725 mmHg 100%
    09:00 -8°C° 0 mm 1 mps 725 mmHg 98%
    10:00 -8°C° 0 mm 1 mps 725 mmHg 96%
    11:00 -6°C° 0 mm 0 mps 726 mmHg 99%
    12:00 -4°C° 0 mm 1 mps 726 mmHg 100%
    13:00 -3°C° 0 mm 1 mps 726 mmHg 100%
    14:00 -5°C° 0 mm 2 mps 725 mmHg 100%
    15:00 -5°C° 0 mm 2 mps 725 mmHg 100%
    16:00 -5°C° 0 mm 2 mps 725 mmHg 100%
    17:00 -6°C° 0 mm 2 mps 725 mmHg 100%
    18:00 -6°C° 0 mm 1 mps 725 mmHg 100%
    19:00 -6°C° 0 mm 1 mps 724 mmHg 100%
    20:00 -7°C° 0 mm 1 mps 724 mmHg 100%
    21:00 -8°C° 0 mm 1 mps 724 mmHg 100%
    22:00 -7°C° 0 mm 1 mps 723 mmHg 100%
    23:00 -7°C° 0 mm 1 mps 723 mmHg 94%

    Tomorrow, 20 February, Tuesday

    Time Temperature Precipitation Wind Pressure Humidity
    00:00 -7°C° 0 mm 1 mps 723 mmHg 85%
    01:00 -7°C° 0 mm 1 mps 723 mmHg 79%
    02:00 -7°C° 0 mm 1 mps 723 mmHg 71%
    03:00 -6°C° 0 mm 1 mps 723 mmHg 65%
    04:00 -6°C° 0 mm 0 mps 722 mmHg 61%
    05:00 -6°C° 0 mm 0 mps 722 mmHg 59%
    06:00 -6°C° 0 mm 0 mps 722 mmHg 56%
    07:00 -6°C° 0 mm 0 mps 722 mmHg 54%
    08:00 -7°C° 0 mm 1 mps 722 mmHg 56%
    09:00 -6°C° 0 mm 1 mps 721 mmHg 56%
    10:00 -6°C° 0 mm 1 mps 722 mmHg 61%
    11:00 -4°C° 0 mm 1 mps 722 mmHg 87%
    12:00 -5°C° 0 mm 2 mps 722 mmHg 94%
    13:00 -5°C° 0 mm 2 mps 721 mmHg 100%
    14:00 -5°C° 0 mm 2 mps 721 mmHg 100%
    15:00 -4°C° 0 mm 2 mps 721 mmHg 100%
    16:00 -4°C° 0 mm 2 mps 721 mmHg 100%
    17:00 -5°C° 0 mm 2 mps 721 mmHg 100%
    18:00 -6°C° 0 mm 3 mps 720 mmHg 100%
    19:00 -7°C° 0 mm 3 mps 720 mmHg 100%
    20:00 -6°C° 0 mm 2 mps 720 mmHg 100%
    21:00 -6°C° 0 mm 2 mps 720 mmHg 100%
    22:00 -6°C° 0.3 mm 2 mps 720 mmHg 100%
    23:00 -6°C° 0.1 mm 2 mps 720 mmHg 100%

    Day after tomorrow, 21 February, Wednesday

    Time Temperature Precipitation Wind Pressure Humidity
    00:00 -6°C° 0 mm 2 mps 720 mmHg 100%
    01:00 -6°C° 0 mm 2 mps 720 mmHg 100%
    02:00 -6°C° 0 mm 2 mps 720 mmHg 100%
    03:00 -6°C° 0 mm 2 mps 720 mmHg 100%
    04:00 -6°C° 0 mm 2 mps 719 mmHg 100%
    05:00 -6°C° 0.1 mm 2 mps 719 mmHg 100%
    06:00 -6°C° 0.1 mm 2 mps 719 mmHg 100%
    07:00 -3°C° 0.1 mm 1 mps 719 mmHg 100%
    08:00 -3°C° 0.3 mm 1 mps 719 mmHg 100%
    09:00 -3°C° 0.2 mm 1 mps 719 mmHg 100%
    10:00 -2°C° 0 mm 1 mps 719 mmHg 100%
    11:00 -1°C° 0 mm 1 mps 719 mmHg 100%
    12:00 -1°C° 0 mm 1 mps 719 mmHg 100%
    13:00 0°C° 0 mm 1 mps 719 mmHg 100%
    14:00 0°C° 0.2 mm 1 mps 719 mmHg 100%
    15:00 0°C° 0.2 mm 1 mps 719 mmHg 100%
    16:00 0°C° 0.2 mm 1 mps 719 mmHg 100%
    17:00 0°C° 0.1 mm 1 mps 719 mmHg 100%
    18:00 0°C° 0.2 mm 1 mps 719 mmHg 100%
    19:00 0°C° 0.2 mm 1 mps 719 mmHg 100%
    20:00 -1°C° 0.1 mm 0 mps 719 mmHg 100%
    21:00 -2°C° 0.1 mm 0 mps 719 mmHg 100%
    22:00 -2°C° 0.1 mm 0 mps 719 mmHg 100%
    23:00 -2°C° 0.1 mm 0 mps 719 mmHg 100%

    22 February, Thursday

    Time Temperature Precipitation Wind Pressure Humidity
    00:00 -2°C° 0.1 mm 0 mps 719 mmHg 100%
    01:00 -1°C° 0.1 mm 1 mps 719 mmHg 100%
    02:00 -3°C° 0.2 mm 0 mps 719 mmHg 100%
    03:00 -3°C° 0.1 mm 0 mps 719 mmHg 100%
    04:00 -3°C° 0.1 mm 0 mps 719 mmHg 100%
    05:00 -3°C° 0 mm 1 mps 719 mmHg 100%
    06:00 -4°C° 0.1 mm 0 mps 718 mmHg 100%
    07:00 -4°C° 0.1 mm 0 mps 719 mmHg 100%
    08:00 -4°C° 0 mm 0 mps 719 mmHg 100%
    09:00 -4°C° 0.1 mm 0 mps 718 mmHg 100%
    10:00 -3°C° 0 mm 1 mps 719 mmHg 100%
    11:00 -2°C° 0 mm 1 mps 718 mmHg 100%
    12:00 -3°C° 0 mm 2 mps 718 mmHg 100%
    13:00 -3°C° 0 mm 2 mps 718 mmHg 100%
    14:00 -3°C° 0 mm 2 mps 718 mmHg 100%

    23 February, Friday

    Time Temperature Precipitation Wind Pressure Humidity

    24 February, Saturday

    Time Temperature Precipitation Wind Pressure Humidity
    Show more